Location: Berlin
(52.5171°N, 13.3759°E)
Time: 07:04:26
(UTC+01:00)

ISS - Pass Details

Date: 09 January 2018
Orbit: 402 x 407 km, 51.6° (Epoch: 18 January)

Event Time Altitude Azimuth Distance (km) Brightness Sun altitude
Exits shadow 05:48:47 61° 148° (SSE) 467 -3.5 -21.1°
Drops below altitude 10° 05:51:43 10° 108° (ESE) 1,468 0.2 -20.6°
Sets 05:53:48 0° 105° (ESE) 2,328 1.6 -20.3°
